Location: Tierra del Sol
(32.6128°N, 116.3319°W)
Time: 19:23:25
(UTC-08:00)

Daily predictions for brighter satellites

Satellite Brightness Start Highest point End
(mag) Time Altitude Azimuth Time Altitude Azimuth Time Altitude Azimuth
Cosmos 2056 Rocket 4.0 17:48:19 10° N 17:53:27 42° ENE 17:58:33 10° SE
Cosmos 2219 Rocket 2.2 17:52:45 10° NNW 17:58:27 80° ENE 18:04:05 10° SSE
FREGAT/IRIS 4.5 17:58:07 10° E 17:59:28 13° ENE 18:00:50 10° NE
Cosmos 2233 Rocket 4.1 17:55:03 10° N 18:01:15 59° E 18:07:21 10° SSE
Cosmos 405 3.5 17:58:03 10° SSE 18:01:18 37° E 18:04:34 10° NNE
CENTAUR R/B 3.0 17:57:10 10° S 18:02:22 36° ESE 18:08:08 10° NE
NOAA 12 4.1 17:59:22 10° SSE 18:04:35 63° ENE 18:09:50 10° N
Cosmos 2227 Rocket 2.3 17:59:48 10° SSW 18:05:27 89° WNW 18:11:08 10° NNE
H-2A R/B 3.5 18:03:31 10° SE 18:07:00 31° ENE 18:10:29 10° N
MOS 1-B Rocket 4.1 18:00:30 10° SSE 18:07:18 75° ENE 18:13:13 10° N
Aureole 2 4.3 18:05:06 10° NNW 18:08:44 84° ENE 18:11:53 10° SSE
Cosmos 2221 Rocket 4.3 18:04:34 10° NNW 18:08:55 59° W 18:13:15 10° S
Cosmos 2237 Rocket 2.4 18:05:44 10° N 18:11:10 48° ENE 18:16:34 10° SE
SL-16 R/B 3.5 18:09:17 10° NNE 18:13:21 20° ENE 18:17:23 10° ESE
FENGYUN 3A 3.8 18:09:43 10° SSE 18:15:06 85° WSW 18:20:33 10° NNW
Cosmos 158 Rocket 4.3 18:11:45 10° S 18:16:20 40° ESE 18:20:52 10° NNE
MONITOR-E 4.4 18:13:22 10° S 18:16:22 70° W 18:19:23 10° NNW
Cosmos 2297 Rocket 2.4 18:14:06 10° SSW 18:19:45 79° WNW 18:25:25 10° NNE
Iridium 4 Rocket 4.2 18:16:32 10° NNE 18:20:32 25° E 18:24:15 10° SE
Cosmos 1624 Rocket 4.0 18:17:44 10° NNW 18:22:58 87° ENE 18:28:09 10° SSE
COSMO-SKYMED 1 4.3 18:19:24 10° N 18:23:22 35° WNW 18:27:18 10° SW
ALOS 3.2 18:24:19 10° S 18:28:50 52° W 18:33:24 10° NNW
Lacrosse 5 1.9 18:25:31 10° NNW 18:30:30 58° NE 18:35:26 10° SE
Cosmos 1812 2.9 18:26:58 10° N 18:30:42 46° E 18:34:26 10° SSE
ERS-2 2.3 18:30:10 10° SSE 18:33:44 49° ENE 18:37:18 10° N
Abrixas rocket 3.0 18:33:27 10° WNW 18:36:32 47° SW 18:39:30 11° SSE
ORS 1 (USA 231) 4.0 18:39:06 10° WNW 18:41:34 61° NNE 18:41:54 52° ENE
Meteor 1-25 Rocket 4.1 18:36:14 10° S 18:41:45 73° E 18:47:17 10° NNE
Cosmos 44 4.3 18:38:05 10° N 18:42:33 30° NE 18:44:21 24° E
Cosmos 1437 Rocket 3.5 18:40:39 10° SSE 18:44:11 31° E 18:45:35 25° NE
Cosmos 1633 2.3 18:40:57 10° S 18:44:29 81° E 18:48:02 10° N
Cosmos 2333 Rocket 3.4 18:39:14 10° NW 18:44:36 45° WSW 18:49:55 10° S
Cosmos 468 4.4 18:39:52 10° S 18:45:07 75° ESE 18:50:22 10° NNE
Thor Agena Rocket 3.5 18:42:13 10° NNE 18:47:13 57° ESE 18:52:09 10° S
Gbstr 26 Del rocket 3.8 18:45:18 10° S 18:48:17 25° SE 18:48:17 25° SE
Cosmos 2034 Rocket 4.3 18:44:20 10° N 18:50:23 43° E 18:56:22 10° SSE
USA 32 4.0 18:45:29 10° SSE 18:50:34 55° E 18:55:41 10° NNE
Cosmos 1674 Rocket 3.5 18:46:57 10° N 18:51:18 86° W 18:55:36 10° S
Envisat 3.4 18:46:56 10° SE 18:51:36 38° ENE 18:56:17 10° N
Cosmos 1908 Rocket 3.5 18:48:33 10° S 18:53:01 85° E 18:57:31 10° N
ATLAS 2A CENTAUR R/B 4.4 18:42:45 10° W 18:53:48 28° SW 18:58:57 10° SSE
Cosmos 1891 Rocket 4.5 18:47:58 10° N 18:54:03 56° E 19:00:00 10° SSE
HJ-1C 3.3 18:50:52 10° SSE 18:54:15 63° ENE 18:57:38 10° N
Cosmos 1269 Rocket 4.2 18:49:38 10° S 18:54:42 49° ESE 18:59:30 11° NNE
SeaSat 1 2.7 18:58:01 29° ESE 19:00:05 47° ENE 19:04:48 10° N
Cosmos 2227 4.5 18:58:54 10° S 19:04:16 43° ESE 19:06:05 33° ENE
ARGOS Delta rocket 3.6 19:01:56 10° NNE 19:06:47 77° E 19:11:22 10° S
Resurs 01 Rocket 3.5 19:10:56 17° NNE 19:10:56 17° NNE 19:12:06 10° N
Shenzhou-11 Module 2.5 19:06:28 10° WNW 19:09:08 56° WSW 19:09:08 56° WSW
Sakura Rocket 4.5 19:05:23 10° WSW 19:11:20 54° SSE 19:14:27 35° ESE
OAO 2 Rocket 3.1 19:07:15 10° WSW 19:12:11 89° SSE 19:13:18 54° ENE
Cosmos 921 Rocket 4.5 19:08:23 10° N 19:10:36 24° NNE 19:10:36 24° NNE
USA 215 4.1 19:06:44 10° NNE 19:12:55 46° NW 19:19:04 10° WSW
Okean 3 4.2 19:10:51 10° NNW 19:14:54 52° W 19:18:57 10° S
SJ-6B 2.9 19:15:23 15° S 19:18:23 69° W 19:22:10 10° NNW
Centaur D-1A AC-32 4.1 19:16:54 10° WSW 19:21:53 60° S 19:29:14 31° ESE
Tiangong 2 3.7 19:28:55 10° NW 19:29:54 18° NW 19:29:54 18° NW
Tsikada Rocket 4.1 19:30:29 10° S 19:36:52 80° W 19:43:19 10° N
Okean 1 4.5 19:32:57 10° NNW 19:35:34 37° NNW 19:35:34 37° NNW
Cosmos 1452 Rocket 4.5 19:36:53 10° NNW 19:41:52 45° WSW 19:46:50 10° S
USA 267 4.2 19:43:26 30° NNE 19:43:26 30° NNE 19:48:22 10° NNW
Cosmos 44 Rocket 3.8 19:39:36 10° NNW 19:43:35 56° NNW 19:43:35 56° NNW
CENTAUR R/B 4.0 19:47:41 10° WSW 19:52:57 32° NW 19:58:50 10° NNE
SL-16 R/B 3.0 19:52:16 10° NNW 19:57:41 48° WSW 19:59:33 35° SSW
Lacrosse 5 4.3 20:09:54 10° W 20:13:00 16° WSW 20:14:45 14° SW
COSMOS 2455 4.5 20:12:08 10° SSW 20:14:20 24° SSW 20:14:20 24° SSW
CZ-3C R/B 3.6 20:21:40 10° SW 21:13:03 - E 20:25:53 41° S
